Regional Weather Roundup
Issued by NWS Binghamton, NY

Home | Current Version | Previous Version | Text Only | Print | Product List | Glossary On
Versions: 1 2 3 4 5 6 7 8 9 10 11 12 13 14 15 16 17 18 19 20 21 22 23 24 25 26 27
000
ASUS41 KBGM 171110
RWRBGM

REGIONAL WEATHER ROUNDUP
NATIONAL WEATHER SERVICE BINGHAMTON NY
600 AM EST TUE JAN 17 2017

Note: "fair" indicates few or no clouds below 12,000 feet with no
significant weather and/or obstructions to visibility.

* = Station(s) that does not report precipitation, such as rain,
snow, etc, also no thunder or fog.

NYZ009-015>018-022>025-036-037-044>046-055>057-062-171200
...Central New York...

CITY           SKY/WX    TMP DP  RH WIND       PRES   REMARKS
Binghamton     CLOUDY    30  25  81 SE3       30.13F
Cortland       CLOUDY    32  28  86 CALM      30.15F
Dansville      LGT RAIN  35  30  82 SE5       30.12F WCI  31
Elmira         CLOUDY    33  28  81 CALM      30.15F
Seneca Falls   CLOUDY    34  28  80 CALM      30.17F
Ithaca         CLOUDY    33  26  75 E5        30.15F WCI  29
Hamilton       CLOUDY    28  25  86 CALM      30.17S
Monticello     CLOUDY    30  25  80 CALM      30.17S
Norwich        MOCLDY    28  25  86 CALM      30.18S
Oneonta        PTCLDY    30  23  74 CALM      30.15R
Penn Yan       CLOUDY    35  28  75 CALM      30.14F
Rome           CLOUDY    19  16  88 CALM      30.21F
Sidney         PTCLDY    27  27 100 CALM      30.18S
Syracuse       MOCLDY    26  22  84 E3        30.18F
$$

PAZ038>040-043-044-047-048-072-171200
...Northeast Pennsylvania...

CITY           SKY/WX    TMP DP  RH WIND       PRES   REMARKS
Hazleton       LGT RAIN  34  32  93 CALM      30.17S
Scranton       MIX PCPN  34  30  85 E3        30.17F
$$
&&
KEY
WCI = Wind Chill Index
VSB = Visibility
HX  = Heat Index
$$




USA.gov is the U.S. government's official web portal to all federal, state and local government web resources and services.